Tracking 35280 objects as of 7-Sep-2026
HD Live streaming from Space Station
objects crossing your sky now

SL-7 DEB


SL-7 DEB is no longer on orbit


NORAD ID: 3705
Int'l Code: 1968-117W
Launch date: December 19, 1968
Source: Commonwealth of Independent States (former USSR) (CIS)
Launch site: PLESETSK MISSILE AND SPACE COMPLEX (PKMTR)
Decay date: 1969-02-13

Note: This is SATELLITE DEBRIS
Your satellite tracking list
Your tracking list is empty




NASA's NSSDC Master Catalog

Two Line Element Set (TLE):
1 03705U 68117  W 69043.13435245  .01056442 +00000-0 +00000-0 0  9999
2 03705 070.9469 304.3273 0000000 000.0000 000.1107 16.09482729008403
Source of the keplerian elements: AFSPC